Minneapolis Flying Cloud, MN

10:30 AM CST on January 22, 2018 (GMT -0600)
Flying Cloud

Weather History for KFCM - December, 2012

Change the Weather History Date:

Thursday, December 6, 2012

  Actual Average Record
Temperature  
Mean Temperature 37 °F -  
Max Temperature 46 °F 33 °F 46 °F (2012)
Min Temperature 28 °F 19 °F -9 °F (2005)
Degree Days  
Heating Degree Days 28    
Moisture  
Dew Point 28 °F    
Average Humidity 62    
Maximum Humidity 76    
Minimum Humidity 53    
Precipitation  
Precipitation 0.00 in - - ()
Sea Level Pressure  
Sea Level Pressure 29.88 in    
Wind  
Wind Speed 12 mph (West)    
Max Wind Speed 17 mph    
Max Gust Speed 24 mph    
Visibility 10 miles    
Events      
Averages and records for this station are not official NWS values.
T = Trace of Precipitation, MM = Missing Value Source: NWS Daily Summary

Daily Weather History Graph

Daily Weather History Graph

Search for Another Location

Airport or City:

Trip Planner

Search our weather history database for the weather conditions in past years. The results will help you decide how hot, cold, wet, or windy it might be!

Date:

Astronomy

Dec. 06, 2012 Rise Set
Actual Time 7:37 AM CST 4:32 PM CST
Civil Twilight 7:03 AM CST 5:06 PM CST
Nautical Twilight 6:27 AM CST 5:43 PM CST
Astronomical Twilight 5:51 AM CST 6:18 PM CST
Moon No Moon Rise 12:15 PM CST (12/6)
Length of Visible Light 10h 02m
Length of Day
8h 55m
Waning Gibbous, 49% of the Moon is Illuminated
Dec 6
Waning Gibbous
Dec 13
New
Dec 19
First Quarter
Dec 28
Full
Jan 4
Last Quarter

Hourly Weather History & Observations

Time (CST) Temp. Windchill Dew Point Humidity Pressure Visibility Wind Dir Wind Speed Gust Speed Precip Events Conditions
12:53 AM 42.1 °F 35.7 °F 27.0 °F 55% 29.86 in 10.0 mi SSE 11.5 mph - N/A   Overcast
1:53 AM 45.0 °F 38.9 °F 28.9 °F 53% 29.84 in 10.0 mi South 12.7 mph 20.7 mph N/A   Overcast
2:53 AM 46.0 °F 40.2 °F 30.0 °F 54% 29.82 in 10.0 mi South 12.7 mph - N/A   Overcast
3:53 AM 46.9 °F - 32.0 °F 56% 29.81 in 10.0 mi SSW 16.1 mph 21.9 mph N/A   Overcast
4:53 AM 46.0 °F 40.6 °F 34.0 °F 63% 29.81 in 10.0 mi SSW 11.5 mph - N/A   Overcast
5:53 AM 46.0 °F 39.3 °F 34.0 °F 63% 29.80 in 10.0 mi SSW 16.1 mph 23.0 mph N/A   Overcast
6:53 AM 44.1 °F 38.1 °F 36.0 °F 73% 29.80 in 10.0 mi SSW 11.5 mph - 0.00 in   Overcast
7:53 AM 43.0 °F 36.8 °F 36.0 °F 76% 29.79 in 10.0 mi SSW 11.5 mph - N/A   Mostly Cloudy
8:53 AM 43.0 °F 37.2 °F 36.0 °F 76% 29.82 in 10.0 mi WSW 10.4 mph 18.4 mph N/A   Partly Cloudy
9:53 AM 44.1 °F 37.4 °F 30.9 °F 60% 29.84 in 10.0 mi WNW 13.8 mph - N/A   Clear
10:53 AM 43.0 °F 36.0 °F 30.0 °F 60% 29.86 in 10.0 mi WNW 13.8 mph - N/A   Clear
11:53 AM 44.1 °F 36.5 °F 30.0 °F 58% 29.83 in 10.0 mi WNW 17.3 mph 24.2 mph N/A   Clear
12:53 PM 43.0 °F 35.7 °F 30.0 °F 60% 29.86 in 10.0 mi NW 15.0 mph - N/A   Clear
1:53 PM 43.0 °F 36.8 °F 28.0 °F 56% 29.86 in 10.0 mi WNW 11.5 mph - N/A   Clear
2:53 PM 43.0 °F 36.8 °F 27.0 °F 53% 29.87 in 10.0 mi WNW 11.5 mph - N/A   Clear
3:53 PM 42.1 °F 35.7 °F 27.0 °F 55% 29.89 in 10.0 mi WNW 11.5 mph - N/A   Clear
4:53 PM 39.9 °F 32.9 °F 26.1 °F 58% 29.92 in 10.0 mi West 11.5 mph 18.4 mph N/A   Clear
5:53 PM 37.9 °F 31.5 °F 24.1 °F 57% 29.94 in 10.0 mi West 9.2 mph - N/A   Clear
6:53 PM 36.0 °F 27.5 °F 23.0 °F 59% 29.96 in 10.0 mi WNW 12.7 mph - N/A   Clear
7:53 PM 35.1 °F 26.4 °F 23.0 °F 61% 29.98 in 10.0 mi NW 12.7 mph - N/A   Clear
8:53 PM 33.1 °F 26.9 °F 21.9 °F 64% 29.99 in 10.0 mi NNW 6.9 mph - N/A   Clear
9:53 PM 30.0 °F 22.4 °F 21.0 °F 69% 30.01 in 10.0 mi NW 8.1 mph - N/A   Clear
10:53 PM 28.9 °F 20.4 °F 19.9 °F 69% 30.01 in 10.0 mi NW 9.2 mph - N/A   Clear
11:53 PM 28.0 °F 22.8 °F 19.9 °F 72% 30.02 in 10.0 mi NNW 4.6 mph - N/A   Clear